{"data":{"norad_id":52996,"intl_designator":"2022-076L","name":"STARLINK-4295","alt_names":[],"object_type":"PAYLOAD","status":"ACTIVE","operator":null,"country":"US","launch_date":"2022-07-07","launch_site_code":"AFETR","launch_vehicle":null,"mission":null,"orbit_class":"UNKNOWN","rcs_meters":null,"size_class":null,"mass_kg":null,"dimensions":null,"purposes":["comms"],"wikipedia_slug":null,"has_3d_model":false,"image_url":null,"decayed_at":null,"tle_current":{"epoch":"2026-05-25T03:56:56.153184Z","epoch_age_seconds":54163,"freshness":"FRESH","line1":"1 52996U 22076L   26145.16453881  .00000602  00000+0  55888-4 0  9997","line2":"2 52996  53.2126 111.0943 0001186  80.0277 280.0849 15.08839980214381","mean_motion":15.0883998,"eccentricity":0.0001186,"inclination_deg":53.2126,"raan_deg":111.0943,"arg_perigee_deg":80.0277,"mean_anomaly_deg":280.0849,"bstar":5.5888e-5,"rev_number":21438,"period_min":95.437555942811,"perigee_km":538.92298947472,"apogee_km":540.56391071748,"semimajor_km":6917.8804500961,"source":"CELESTRAK","updated_at":"2026-05-25T13:38:17.275423Z"}}}